EHI
0 0 0 0 0 0 0 0 0 0 0 0 0 0 0 0 0 0 0 0 0 0 0 0 0 1 2 1 0 0 0 0 0 0 0 0 0 0 0 0 0 0 0 0
0 0 0 0 0 0 0 0 0 0 0 0 0 0 0 0 0 0 0 0 0 0 0 0 0 0 1 0 0 0 0 0 0 0 0 0 0 0 0 0 0 0 0 0
0 0 0 0 0 0 0 0 0 0 0 0 0 0 0 0 0 0 0 0 0 0 0 0 0 0 0 0 0 0 0 0 0 0 0 0 0 0 0 0 0 0 0 0
0 0 0 0 0 0 0 0 0 0 0 0 0 0 0 0 0 0 0 0 0 0 0 0 0 0 0 0 0 0 0 0 0 0 0 0 0 0 0 0 0 0 0 0
0 0 0 0 0 0 0 0 0 0 0 0 0 0 0 0 0 0 0 0 0 0 0 0 0 0 0 0 0 0 0 0 0 0 0 0 0 0 0 0 0 0 0 0
0 0 0 0 0 0 0 0 0 0 0 0 0 0 0 0 0 0 0 0 0 0 0 0 0 0 0 0 0 0 0 0 0 0 0 0 0 0 0 0 0 0 0 0
0 0 0 0 0 0 0 0 0 0 0 0 0 0 0 0 0 0 0 0 0 0 0 0 0 0 0 0 0 0 0 0 0 0 0 0 0 0 0 0 0 0 0 0
0 0 0 0 0 0 0 0 0 0 0 0 0 0 0 0 0 0 0 0 0 0 0 0 0 0 0 0 0 0 0 0 0 0 0 0 0 0 0 0 0 0 0 0
0 0 0 0 0 0 0 0 0 0 0 0 0 0 0 0 0 0 0 0 0 0 0 0 0 0 0 0 0 0 0 0 0 0 0 0 0 0 0 0 0 0 0 0
0 0 0 0 0 0 0 0 0 0 0 0 0 0 0 0 0 0 0 0 0 0 0 0 0 0 0 0 0 0 0 0 0 0 0 0 0 0 0 0 0 0 0 0
0 0 0 0 0 0 0 0 0 0 0 0 0 0 0 0 0 0 0 0 0 0 0 1 2 2 1 0 0 0 0 0 0 0 0 0 0 0 0 0 0 0 0 0
0 0 0 0 0 0 0 0 0 0 0 0 0 0 0 0 0 0 0 0 0 0 0 2 4 5 3 1 0 0 0 0 0 0 0 0 0 0 0 0 0 0 0 0
0 0 0 0 0 0 0 0 0 0 0 0 0 0 0 0 0 0 0 0 0 0 1 3 7 7 4 1 0 0 0 0 0 0 0 0 0 0 0 0 0 0 0 0
0 0 0 0 0 0 0 0 0 0 0 0 0 0 0 0 0 0 0 0 0 1 3 6 7 6 2 1 0 0 0 0 0 0 0 0 0 0 0 0 0 0 0 0
0 0 0 0 0 0 0 0 0 0 0 0 0 0 0 0 0 0 0 0 0 2 4 5 4 3 1 0 0 0 0 0 0 0 0 0 0 0 0 0 0 0 0 0
0 0 0 0 0 0 0 0 0 0 0 0 0 0 0 0 0 0 0 0 0 1 3 2 1 1 0 0 1 1 0 0 0 0 0 0 0 0 0 0 0 0 0 0
0 0 0 0 0 0 0 0 0 0 0 0 0 0 0 0 0 0 0 0 0 1 1 1 0 0 0 0 1 1 0 0 0 0 0 0 0 0 0 0 0 0 0 0
0 0 0 0 0 0 0 0 0 0 0 0 0 0 0 0 0 0 0 0 0 0 0 0 0 0 0 0 1 1 0 0 0 0 0 0 0 0 0 0 0 0 0 0
0 0 0 0 0 0 0 0 0 0 0 0 0 0 0 0 0 0 0 0 0 0 0 0 0 0 0 0 0 0 0 0 0 0 0 0 0 0 0 0 0 0 0 0
0 0 0 0 0 0 0 0 0 0 0 0 0 0 0 0 0 0 0 0 0 0 0 0 0 0 0 0 0 0 0 0 0 0 0 0 0 0 0 0 0 0 0 0
0 0 0 0 0 0 0 0 0 0 0 0 0 0 0 0 0 0 0 0 0 0 0 0 0 0 0 0 0 0 0 0 0 0 0 0 0 0 0 0 0 0 0 0
0 0 0 0 0 0 0 0 0 0 0 0 0 0 0 0 0 0 0 0 0 0 0 0 0 0 0 0 0 0 0 0 0 0 0 0 0 0 0 0 0 0 0 0
0 0 0 0 0 0 0 0 0 0 0 0 0 0 0 0 0 0 0 0 0 0 0 0 0 0 0 0 0 0 0 0 0 0 0 0 0 0 0 0 0 0 0 0
0 0 0 0 0 0 0 0 0 0 0 0 0 0 0 0 0 0 0 0 0 0 0 0 0 0 0 0 0 0 0 0 0 0 0 0 0 0 0 0 0 0 0 0
0 0 0 0 0 0 0 0 0 0 0 0 0 0 0 0 0 0 0 0 0 0 0 0 0 0 0 0 0 0 0 0 0 0 0 0 0 0 0 0 0 0 0 0
0 0 0 0 0 0 0 0 0 0 0 0 0 0 0 0 0 0 0 0 0 0 0 0 0 0 0 0 0 0 0 0 0 0 0 0 0 0 0 0 0 0 0 0
Wind_Speed
3 2 2 5 3 3 3 4 5 5 4 3 5 7 9 7 3 3 7 7 7 6 4 5 6 6 6 6 8 9 9 9 9 6 6 4 4 4 4 4 5 5 5 6
3 3 6 7 7 5 4 5 7 6 6 4 5 7 6 5 4 8 11 9 7 6 4 5 5 6 6 6 7 7 8 8 8 6 4 4 3 3 3 2 3 4 6 7
5 7 8 10 7 5 5 5 7 6 5 7 5 7 7 5 2 6 8 8 8 9 8 6 5 6 6 7 8 8 8 8 7 6 3 3 2 0 0 1 1 2 5 6
7 11 12 12 10 7 8 8 7 5 2 5 2 5 10 3 3 6 7 7 7 7 6 7 7 6 6 6 7 7 6 6 6 6 5 6 5 4 3 2 2 2 3 4
6 3 4 8 10 10 9 8 5 3 1 3 3 3 10 0 5 6 7 7 6 6 6 7 8 8 8 8 8 8 7 6 6 5 5 4 3 2 2 3 4 3 2 3
8 7 6 7 6 5 4 2 4 4 4 3 6 5 8 4 8 7 6 6 6 6 6 6 6 6 7 8 8 8 7 6 6 6 5 5 5 5 4 4 5 4 2 1
7 8 9 8 7 4 3 6 4 4 2 7 6 4 9 6 6 8 8 8 7 7 6 6 7 7 7 9 9 8 8 7 7 6 6 6 6 6 6 5 5 4 3 1
4 7 6 6 11 9 6 10 7 5 5 5 5 4 5 1 5 7 8 8 7 7 7 8 9 9 9 9 9 9 9 7 7 6 6 5 6 4 4 5 5 5 3 2
6 7 6 5 6 11 6 6 8 6 2 2 5 2 4 1 3 6 7 7 8 8 8 9 8 8 8 9 9 9 9 7 7 6 6 5 5 5 5 5 4 3 2 2
7 7 8 4 3 2 7 7 5 4 3 4 4 3 5 7 7 7 7 8 9 8 7 7 7 7 7 8 7 7 7 7 6 6 6 5 6 6 6 5 5 3 2 0
2 4 4 3 1 2 1 2 4 4 4 6 3 7 7 9 9 9 10 9 9 9 9 8 7 7 7 7 7 6 6 6 6 6 6 6 6 6 6 5 6 5 3 2
3 3 1 4 4 2 3 4 5 4 5 5 5 9 7 6 7 6 7 8 8 9 9 8 8 8 7 7 7 7 6 6 6 6 7 7 7 7 6 6 6 5 5 4
4 4 3 8 8 5 2 1 2 3 2 3 4 8 6 2 4 5 6 6 6 7 7 7 7 8 8 8 7 7 7 6 6 7 8 7 7 7 7 7 6 5 5 4
5 2 4 6 7 4 5 6 3 4 3 4 7 8 8 7 7 7 8 8 7 8 9 9 8 8 8 9 9 8 7 7 7 7 8 8 8 8 7 6 6 5 4 4
4 2 5 8 10 7 6 8 7 7 8 9 9 10 11 10 10 10 9 7 6 8 9 10 10 9 8 8 8 8 8 8 8 8 9 9 8 7 6 6 5 5 4 5
2 3 3 7 8 6 8 9 9 9 8 9 9 11 11 10 7 8 8 6 8 10 10 9 9 8 8 9 9 9 8 8 8 9 9 8 7 7 7 6 6 5 5 4
3 4 3 6 6 5 10 10 11 10 9 9 12 12 9 7 7 7 6 5 7 8 7 6 5 5 5 6 7 9 10 9 9 10 9 9 8 8 7 6 6 5 4 3
6 4 3 2 1 8 11 6 9 11 13 11 10 9 8 7 5 4 5 6 6 7 7 6 4 3 1 1 4 6 7 8 10 9 9 9 9 8 7 7 6 5 4 3
6 7 4 2 2 9 12 9 5 6 9 9 9 6 5 5 4 3 0 5 7 7 7 5 5 4 4 4 2 2 4 6 7 8 8 9 9 9 8 8 7 5 4 3
5 4 5 3 1 6 12 10 5 2 5 6 4 5 6 7 4 4 2 5 7 7 7 7 6 6 6 4 5 6 4 3 3 5 6 6 7 8 9 8 6 4 4 4
3 3 2 3 3 9 15 11 4 1 5 3 3 5 6 6 7 6 8 6 7 7 7 7 7 6 5 4 7 7 6 4 2 2 3 4 4 5 5 5 4 4 4 4
4 3 3 3 4 11 7 7 2 5 3 2 4 3 4 3 5 9 9 8 8 7 6 6 6 5 4 5 7 7 4 2 3 4 4 3 3 2 4 4 4 4 5 4
1 1 2 4 7 10 11 11 13 6 3 3 3 3 5 6 6 7 8 8 7 7 6 5 6 4 3 4 6 6 3 3 4 4 3 1 1 1 2 4 4 3 4 3
3 5 3 4 8 14 16 15 12 5 4 4 4 5 5 6 8 8 9 8 7 6 6 5 5 4 3 2 3 4 4 4 4 3 2 1 1 1 2 3 3 4 4 3
3 3 5 7 9 14 14 17 15 9 1 3 2 2 4 6 8 10 10 8 7 6 5 5 5 5 5 3 3 3 3 4 3 2 1 1 1 1 1 2 2 2 3 4
5 5 4 6 6 10 19 21 21 16 7 2 2 1 1 4 8 10 9 8 8 7 6 5 5 5 4 4 4 3 3 3 3 2 1 1 1 1 2 3 3 6 4 3
Wind_Direction
5 38 304 285 280 232 261 274 278 276 293 339 302 279 270 269 258 141 135 136 122 111 93 69 71 91 107 131 144 151 152 154 153 154 160 171 202 221 221 206 187 175 171 165
15 285 259 268 270 278 287 286 283 292 309 333 290 281 277 280 241 167 154 150 142 133 110 89 82 88 108 132 142 147 154 159 165 165 159 161 174 207 213 194 167 166 168 165
211 247 267 278 287 312 293 250 252 264 317 346 330 315 317 329 66 135 154 159 159 158 152 139 119 108 117 134 152 161 165 165 170 162 143 132 132 175 162 133 127 162 166 157
236 239 244 259 269 264 266 251 247 257 345 305 343 304 294 245 191 173 178 171 168 163 155 150 142 138 141 145 148 152 164 169 174 170 169 167 176 178 182 139 121 139 146 152
258 262 276 264 257 251 242 244 242 244 247 301 300 265 285 131 189 196 193 186 180 181 177 170 164 159 158 155 154 157 162 173 176 174 173 176 174 163 133 103 102 115 130 153
255 258 246 239 255 232 216 64 17 40 73 289 249 195 272 231 197 186 201 203 198 199 196 186 168 157 158 161 160 161 165 176 179 177 174 177 169 155 135 113 113 118 129 156
279 265 244 236 253 256 113 88 21 345 14 250 255 200 246 235 186 173 184 198 203 197 192 189 179 178 173 169 167 166 169 178 182 178 176 175 171 162 151 138 120 118 121 136
258 279 250 223 204 193 179 146 166 207 217 266 301 251 267 208 164 167 171 179 184 188 191 193 193 187 180 175 168 164 171 176 177 174 174 171 165 158 153 148 134 136 141 169
231 261 286 282 198 155 152 177 180 155 229 257 279 318 349 352 169 179 187 187 190 196 197 196 193 185 178 175 173 171 172 174 177 171 162 160 158 152 148 144 130 127 127 149
212 262 285 310 69 143 151 157 113 138 192 236 270 251 220 224 223 218 212 211 213 214 208 196 184 178 177 175 172 169 170 178 178 169 163 158 158 155 149 141 134 129 121 13
187 209 293 349 277 229 191 178 153 160 178 170 222 262 230 207 215 220 227 225 218 212 207 193 180 172 166 162 165 171 178 179 179 172 165 158 161 159 153 150 154 159 158 186
5 119 266 284 288 266 229 213 162 179 231 189 182 257 257 219 214 215 234 235 224 210 199 184 172 163 163 168 171 175 177 180 182 173 166 168 166 165 166 166 168 169 174 187
21 77 29 343 338 0 354 307 165 154 159 193 197 260 310 282 229 225 239 241 224 209 191 174 169 172 176 178 179 180 179 178 173 166 167 171 172 173 177 178 177 183 190 193
100 104 173 214 242 263 284 276 216 149 180 229 227 251 286 281 266 261 255 244 214 198 188 178 182 189 189 186 184 183 185 177 168 166 169 176 181 182 183 185 188 195 197 198
101 186 238 249 261 264 264 267 256 221 208 212 233 234 247 243 242 250 256 250 208 194 192 188 191 197 196 192 189 187 187 181 173 171 179 188 188 187 188 195 203 208 209 205
134 213 257 274 272 286 282 268 264 256 233 225 232 245 245 251 247 250 252 236 205 197 196 196 198 198 199 197 194 191 192 189 180 184 192 191 187 189 196 201 203 205 204 191
196 201 243 266 285 315 275 247 247 247 229 219 231 237 241 250 237 232 238 212 191 183 181 185 189 197 208 211 200 198 200 191 189 197 198 192 191 194 197 193 186 188 183 170
202 194 197 244 313 254 256 248 243 255 259 242 234 233 225 219 218 222 191 149 132 122 117 117 118 116 117 222 211 204 196 192 197 201 198 192 190 193 189 181 182 180 170 174
191 165 159 160 243 278 286 270 232 233 267 255 232 216 176 151 86 359 242 131 131 127 126 121 115 105 71 40 38 128 171 191 197 200 197 192 188 186 181 185 186 180 172 185
55 101 130 135 197 264 267 280 322 277 287 293 184 170 158 133 128 229 185 110 111 114 116 114 108 91 70 49 66 77 85 126 192 207 200 188 182 182 183 188 186 176 175 192
56 40 129 149 212 262 267 288 317 168 259 314 115 140 151 173 195 176 139 126 125 120 116 109 95 81 72 77 81 75 71 73 90 110 131 149 165 179 187 186 178 174 176 184
171 180 199 165 214 253 296 339 265 223 233 109 103 126 143 158 133 134 139 139 133 123 120 114 103 96 88 95 95 88 79 75 81 82 89 107 133 169 180 175 178 175 171 179
214 173 221 214 238 277 318 305 292 251 171 141 128 138 134 135 148 150 150 148 140 135 139 135 128 123 111 112 116 116 136 123 100 89 84 84 118 162 168 174 177 169 167 171
353 15 315 288 283 304 312 313 307 264 165 161 163 161 154 163 168 163 159 154 146 146 156 152 145 153 177 165 139 143 147 130 117 122 134 134 141 178 193 184 170 165 171 180
283 344 326 303 306 317 322 332 328 314 225 140 153 183 177 166 169 170 167 161 158 163 169 163 168 189 210 191 171 163 145 121 110 115 131 139 138 126 118 117 124 170 183 187
211 210 231 265 284 300 300 311 318 312 289 193 153 158 190 164 167 165 164 161 162 170 175 178 188 202 213 184 177 174 151 129 117 91 100 139 140 119 117 113 82 52 63 78